This is the latest recevied weather packets stored in our database for station/object KE0LFX. If no packets are shown the sender has not sent any weather packets the latest 10 day(s).
| Time | Temp. | Humidity | Pressure | Rain* | Wind** | Luminosity | Snow |
|---|---|---|---|---|---|---|---|
| 1777999394 | 11.67° C | 44% | 1015.5 hPa | 0 mm | - | 210 W/m² | - |
| 1777999092 | 12.22° C | 43% | 1015.6 hPa | 0 mm | - | 227 W/m² | - |
| 1777998791 | 12.22° C | 44% | 1015.6 hPa | 0 mm | - | 228 W/m² | - |
| 1777998488 | 11.67° C | 45% | 1015.6 hPa | 0 mm | - | 261 W/m² | - |
| 1777998184 | 11.67° C | 45% | 1015.5 hPa | 0 mm | - | 232 W/m² | - |
| 1777997882 | 11.67° C | 45% | 1015.2 hPa | 0 mm | - | 227 W/m² | - |
| 1777997579 | 11.11° C | 44% | 1015.1 hPa | 0 mm | - | 227 W/m² | - |
| 1777997276 | 11.11° C | 44% | 1015.4 hPa | 0 mm | - | 204 W/m² | - |
| 1777996974 | 11.11° C | 45% | 1015.4 hPa | 0 mm | - | 217 W/m² | - |
| 1777996670 | 11.11° C | 45% | 1015.4 hPa | 0 mm | - | 218 W/m² | - |
| 1777996366 | 11.11° C | 46% | 1015.5 hPa | 0 mm | - | 202 W/m² | - |
| 1777996063 | 10.56° C | 45% | 1015.3 hPa | 0 mm | - | 171 W/m² | - |
| 1777995759 | 11.11° C | 44% | 1015.2 hPa | 0 mm | - | 173 W/m² | - |
| 1777995456 | 11.11° C | 45% | 1015.6 hPa | 0 mm | - | 167 W/m² | - |
| 1777995152 | 11.11° C | 45% | 1015.3 hPa | 0 mm | - | 152 W/m² | - |
| 1777994850 | 11.11° C | 44% | 1015.2 hPa | 0 mm | - | 142 W/m² | - |
| 1777994546 | 11.11° C | 44% | 1015.2 hPa | 0 mm | - | 181 W/m² | - |
| 1777994240 | 11.11° C | 45% | 1015.1 hPa | 0 mm | - | 195 W/m² | - |
| 1777993938 | 10.56° C | 45% | 1015.2 hPa | 0 mm | - | 184 W/m² | - |
| 1777993635 | 10.56° C | 47% | 1015 hPa | 0 mm | - | 187 W/m² | - |
| 1777993332 | 10.56° C | 48% | 1015.1 hPa | 0 mm | - | 180 W/m² | - |
| 1777993032 | 10.56° C | 46% | 1015 hPa | 0 mm | - | 187 W/m² | - |
| 1777992731 | 10.56° C | 47% | 1015.1 hPa | 0 mm | - | 169 W/m² | - |
| 1777992428 | 10.56° C | 48% | 1014.9 hPa | 0 mm | - | 167 W/m² | - |
| 1777992126 | 10° C | 49% | 1015.1 hPa | 0 mm | - | 156 W/m² | - |
* Rain latest hour (hover to see other rain measurements)
** Current wind speed in m/s (hover to see current wind gust speed)